Home   Weather   Cape Canaveral   Past weeks

Flag for USA Past Weather in Cape Canaveral, Florida, USA — Yesterday and Last 2 Weeks

Now
78 °F

Clear.


Feels Like: 80 °F
Forecast: 77 / 87 °F
Wind: 3 mph from East

Location: Cape Kennedy

Current Time: Sep 24, 2016 at 11:57:59 PM

Latest Report: Sep 24, 2016 at 10:58 PM


Visibility: 10 mi

Pressure: 30.02 "Hg

Humidity: 87%

Dew Point: 74 °F

Location of Cape CanaveralLocation

Past Weather in Cape Canaveral — Graph

°F

Cape Canaveral Temperature Yesterday

Maximum temperature yesterday: 88 °F (at 12:58 PM)
Minimum temperature yesterday: 72 °F (at 12:04 AM)
Average temperature yesterday: 79 °F

High & Low Weather Summary for the Past Weeks

 TemperatureHumidityPressure
High91 °F (Sep 19, 1:58 PM)95% (Sep 14, 11:58 PM)30.11 "Hg (Sep 14, 11:58 PM)
Low72 °F (Sep 23, 12:04 AM)58% (Sep 23, 12:58 PM)29.91 "Hg (Sep 13, 6:58 AM)
Average81 °F84%29.99 "Hg
* Reported Sep 9 9:58 PM — Sep 24 9:58 PM, Cape Canaveral, Weather by CustomWeather, © 2016

Note: Actual official high and low records may vary slightly from our data, if they occured in-between our weather recording intervals... More about our weather records

Advertising

Cape Canaveral Weather History for the Previous 24 Hours

Scroll right to see more
 ConditionsComfort  
Time TempWeatherWind HumidityBarometerVisibility
9:58 PM
Sat, Sep 24
78 °FClear.3 mph86%30.02 "Hg10 mi
8:58 PM80 °FClear.3 mph83%30.03 "Hg10 mi
7:58 PM81 °FClear.5 mph78%30.00 "Hg10 mi
6:58 PM82 °FSunny.6 mph76%30.00 "Hg10 mi
5:58 PM82 °FSunny.5 mph77%29.99 "Hg10 mi
4:58 PM82 °FSunny.6 mph77%30.00 "Hg10 mi
3:58 PM83 °FSunny.10 mph75%30.00 "Hg10 mi
2:58 PM84 °FThundershowers. Sunny.7 mph72%30.01 "Hg10 mi
1:58 PM87 °FSunny.8 mph67%30.02 "Hg10 mi
12:58 PM86 °FSunny.7 mph72%30.05 "Hg10 mi
11:58 AM84 °FScattered clouds.6 mph77%30.05 "Hg10 mi
10:58 AM86 °FSunny.7 mph70%30.05 "Hg10 mi
9:58 AM85 °FSunny.3 mph74%30.06 "Hg10 mi
8:58 AM81 °FSunny.3 mph90%30.05 "Hg10 mi
7:58 AM76 °FSunny.1 mph93%30.04 "Hg10 mi
6:58 AM76 °FThundershowers. Clear.3 mph91%30.02 "Hg10 mi
5:58 AM76 °FClear.No wind92%30.00 "Hg10 mi
4:58 AM75 °FClear.3 mph92%29.99 "Hg10 mi
3:58 AM75 °FPassing clouds.2 mph92%30.00 "Hg10 mi
2:58 AM75 °FClear.No wind91%30.00 "Hg10 mi
1:58 AM78 °FClear.2 mph87%30.01 "Hg10 mi
12:58 AM78 °FClear.No wind86%30.01 "Hg10 mi
11:58 PM
Fri, Sep 23
78 °FClear.6 mph85%30.02 "Hg10 mi
Weather by CustomWeather, © 2016

See weather overviewHow to use our weather pages